This demonstration page uses our WeatherBlox Daily Observations layout. Learn more.

Left ArrowRight Arrow

53.62937, 11.41316

Hourly Observations for November 27, 2018

Temp ( °F °C ) Dew Point ( °F °C ) Humidity (%) Winds ( mph kmh ) Pressure ( in mb ) Visibility ( mi km ) Precip ( " mm )
6:50 am 06:50 Mostly Cloudy 36 2 34 1 93 93 NNE 6 9 30.15 1021 30 48 N/A
7:20 am 07:20 Partly Cloudy 34 1 32 0 93 93 N 8 13 30.15 1021 30 48 N/A
7:50 am 07:50 Mostly Cloudy 34 1 32 0 93 93 N 8 13 30.15 1021 30 48 N/A
8:20 am 08:20 Mostly Cloudy 34 1 32 0 93 93 N 7 11 30.15 1021 30 48 N/A
8:50 am 08:50 Mostly Cloudy 34 1 32 0 93 93 NNE 5 7 30.18 1022 30 48 N/A
9:20 am 09:20 Mostly Cloudy 34 1 32 0 93 93 NNE 3 6 30.18 1022 30 48 N/A
9:50 am 09:50 Mostly Cloudy 36 2 32 0 87 87 NNE 5 7 30.18 1022 30 48 N/A
10:20 am 10:20 Mostly Cloudy 36 2 32 0 87 87 NNE 5 7 30.21 1023 30 48 N/A
10:50 am 10:50 Mostly Cloudy 36 2 30 -1 81 81 NNE 3 6 30.21 1023 30 48 N/A
11:20 am 11:20 Mostly Cloudy 36 2 30 -1 81 81 NE 5 7 30.21 1023 30 48 N/A
11:50 am 11:50 Mostly Cloudy 37 3 30 -1 75 75 NNE 5 7 30.21 1023 30 48 N/A
12:20 pm 12:20 Mostly Cloudy 37 3 30 -1 75 75 NNE 3 6 30.21 1023 30 48 N/A
12:50 pm 12:50 Mostly Cloudy 37 3 30 -1 75 75 NE 3 6 30.21 1023 30 48 N/A
1:20 pm 13:20 Mostly Cloudy 37 3 30 -1 75 75 E 3 6 30.21 1023 30 48 N/A
1:50 pm 13:50 Mostly Cloudy 37 3 30 -1 75 75 E 3 6 30.21 1023 30 48 N/A
2:20 pm 14:20 Mostly Cloudy 37 3 30 -1 75 75 E 2 4 30.21 1023 30 48 N/A
2:50 pm 14:50 Mostly Cloudy 37 3 30 -1 75 75 E 2 4 30.21 1023 30 48 N/A
3:20 pm 15:20 Mostly Cloudy 37 3 28 -2 70 70 VRB 1 2 30.24 1024 30 48 N/A
3:50 pm 15:50 Mostly Cloudy 37 3 25 -4 60 60 VRB 2 4 30.24 1024 30 48 N/A
4:20 pm 16:20 Mostly Cloudy 36 2 28 -2 75 75 ENE 5 7 30.24 1024 30 48 N/A
4:50 pm 16:50 Mostly Cloudy 36 2 27 -3 70 70 ENE 5 7 30.24 1024 30 48 N/A
5:20 pm 17:20 Mostly Cloudy 37 3 25 -4 60 60 VRB 2 4 30.24 1024 30 48 N/A
5:50 pm 17:50 Mostly Cloudy 36 2 25 -4 65 65 E 3 6 30.24 1024 30 48 N/A
6:20 pm 18:20 Mostly Cloudy 36 2 25 -4 65 65 E 3 6 30.27 1025 30 48 N/A
6:50 pm 18:50 Mostly Cloudy 36 2 25 -4 65 65 E 3 6 30.27 1025 30 48 N/A

Powered by AerisWeather